Flag for Canada Weather past 2 weeks in Calgary, Alberta, Canada

Now
43 °F

Passing clouds.


Feels Like: 38 °F
Forecast: 35 / 62 °F
Wind: 8 mph from Northwest

Location: Calgary International


UV Index: 3 (Moderate)

Visibility: 15 mi


Pressure: 30.15 "Hg

Humidity: 34%

Dew point: 16 °F

Location of CalgaryLocation

Historic Weather in Calgary

°F

Calgary temperature yesterday

Maximum temperature yesterday: 57 °F (at 5:00 PM)
Minimum temperature yesterday: 39 °F (at 7:00 AM)
Average temperature yesterday: 48 °F

Past Weeks' High & Low Weather Summary

 TemperatureHumidityPressure
High66 °F (Apr 8, 3:00 PM)100% (Apr 17, 2:00 AM)30.47 "Hg (Apr 17, 2:00 AM)
Low19 °F (Apr 13, 5:00 AM)11% (Apr 14, 12:00 PM)29.62 "Hg (Apr 9, 12:00 AM)
Average39 °F55%29.97 "Hg
* Reported Apr 6 2:00 AM — Apr 21 2:00 AM, Calgary, Weather by CustomWeather, © 2014

Note: Actual official high and low records may vary slightly from our data, if they occured in-between our weather recording intervals... More about our weather records

Advertising

Historic Weather Conditions — Data for Previous 24 hours

 ConditionsComfort  
Time TempWeatherWind HumidityBarometerVisibility
2:00 AM
Apr 21
43 °FPassing clouds.9 mph34%30.16 "Hg15 mi
1:00 AM39 °FPassing clouds.7 mph42%30.16 "Hg15 mi
12:00 AM43 °FPassing clouds.8 mph34%30.16 "Hg15 mi
11:00 PM
Apr 20
45 °FPassing clouds.12 mph31%30.15 "Hg15 mi
10:00 PM45 °FPassing clouds.8 mph31%30.14 "Hg15 mi
9:00 PM46 °FPassing clouds.9 mph29%30.13 "Hg20 mi
8:00 PM50 °FScattered clouds.12 mph28%30.11 "Hg40 mi
7:00 PM54 °FScattered clouds.16 mph22%30.11 "Hg40 mi
6:00 PM55 °FScattered clouds.20 mph24%30.08 "Hg40 mi
5:00 PM57 °FScattered clouds.20 mph21%30.06 "Hg40 mi
4:00 PM55 °FPartly sunny.16 mph23%30.06 "Hg40 mi
3:00 PM55 °FPartly sunny.7 mph28%30.04 "Hg40 mi
2:00 PM55 °FPartly sunny.14 mph31%30.03 "Hg40 mi
1:00 PM52 °FPartly sunny.18 mph30%30.03 "Hg40 mi
12:00 PM52 °FPartly sunny.5 mph28%30.02 "Hg40 mi
11:00 AM52 °FBroken clouds.13 mph30%30.00 "Hg40 mi
10:00 AM50 °FScattered clouds.13 mph35%29.99 "Hg40 mi
9:00 AM46 °FPartly sunny.10 mph43%29.97 "Hg40 mi
8:00 AM45 °FBroken clouds.12 mph46%29.93 "Hg40 mi
7:00 AM39 °FPartly cloudy.8 mph56%29.90 "Hg40 mi
6:00 AM41 °FPassing clouds.8 mph53%29.88 "Hg15 mi
5:00 AM41 °FPassing clouds.12 mph57%29.85 "Hg15 mi
4:00 AM41 °FPassing clouds.7 mph53%29.83 "Hg15 mi
3:00 AM41 °FPassing clouds.15 mph49%29.81 "Hg15 mi
Weather by CustomWeather, © 2014

See weather overview